Regional Weather Roundup
Issued by NWS Kansas City/Pleasant Hill, MO

Home | Current Version | Previous Version | Text Only | Print | Product List | Glossary On
Versions: 1 2 3 4 5 6 7 8 9 10 11 12 13 14 15 16 17 18 19 20 21 22 23 24 25 26 27 28 29 30 31 32 33 34 35 36 37 38 39 40 41 42 43 44 45 46 47 48 49 50
000
ASUS43 KEAX 131304
RWREAX

WEATHER ROUNDUP FOR EASTERN KANSAS AND NORTHWEST MISSOURI
NATIONAL WEATHER SERVICE KANSAS CITY/PLEASANT HILL MO
800 AM CDT SUN JUL 13 2014

KSZ040-057-103>105-MOZ028-029-037-043-131400-
...KANSAS CITY METROPOLITAN AREA...

CITY           SKY/WX    TMP DP  RH WIND       PRES   REMARKS
K.C. INTL      LGT RAIN  71  69  93 SE3       30.01F
K.C. DOWNTOWN  LGT RAIN  73  69  87 SW6       30.00F
LEES SUMMIT    LGT RAIN  74  68  81 CALM      30.04F
OLATHE - IXD   LGT RAIN  72  69  90 E9        30.02F
OLATHE - OJC   LGT RAIN  72  69  90 SE8       30.02F
LAWRENCE       CLOUDY    72  69  90 S10       29.99F

$$

MOZ001>008-011>017-020>025-030>033-038>040-044>046-053-054-131400-
...NORTHERN AND CENTRAL MISSOURI...

CITY           SKY/WX    TMP DP  RH WIND       PRES   REMARKS
ST. JOSEPH     CLOUDY    73  71  93 CALM      30.02S
MOSBY          LGT RAIN  72  70  94 S3        30.02S
WHITEMAN AFB   PTSUNNY   76  63  64 NW6       30.04R
CLINTON        MOSUNNY   75  72  88 CALM      30.05R
SEDALIA        PTSUNNY   78  71  79 NW3       30.03F
WARSAW         NOT AVBL
MARSHALL         N/A     75  72  88 CALM      30.05R
CHILLICOTHE      N/A     72  69  90 CALM      30.03R
KIRKSVILLE     CLOUDY    72  70  93 S3        30.03R

$$

MOZ041-047>049-056>058-063>065-088>090-097-131400-
...EASTERN AND SOUTHERN MISSOURI...

CITY           SKY/WX    TMP DP  RH WIND       PRES   REMARKS
ST. LOUIS INTL PTSUNNY   83  70  64 CALM      30.01F
SPIRIT OF STL  PTSUNNY   80  71  74 SW5       30.00S
COLUMBIA       CLOUDY    76  68  76 NW9       30.03R
JEFFERSON CITY CLOUDY    78  67  68 NW7       30.02R
ROLLA          PTSUNNY   77  67  71 VRB7      30.04F
LEBANON        PTSUNNY   75  64  69 NW7       30.10R
OSAGE BEACH    PTSUNNY   75  68  78 S7        30.05F
SPRINGFIELD    CLOUDY    77  66  68 W6        30.06R
BRANSON        PTSUNNY   79  66  65 SW13      30.09S
NEVADA         MOSUNNY   73  68  83 S3        30.06S
JOPLIN         SUNNY     80  65  59 SW10      30.05S
WEST PLAINS    CLOUDY    75  70  84 SW5       30.09S

$$

IAZ060-094-KSZ022-034>040-054-083-096-NEZ052-066-093-131400-
...KANSAS...SOUTHEAST NEBRASKA AND IOWA...

CITY           SKY/WX    TMP DP  RH WIND       PRES   REMARKS
TOPEKA         CLOUDY    73  71  93 N5        30.02R
MANHATTAN      PTSUNNY   73  70  90 N5        30.03S
EMPORIA        PTSUNNY   74  67  78 E6        30.02R
CHANUTE        SUNNY     72  63  73 E5        30.04S
WICHITA        PTSUNNY   74  60  61 W6        30.01R
OMAHA          MOSUNNY   72  66  81 CALM      30.06S
LINCOLN        SUNNY     72  66  81 W3        30.08S
FALLS CITY     PTSUNNY   71  69  93 N3        30.03R
LAMONI         CLOUDY    69  68  96 N8        30.04R
DES MOINES     MOSUNNY   71  67  87 NW7       30.02R

$$



USA.gov is the U.S. government's official web portal to all federal, state and local government web resources and services.